Wetterdaten: Dienstag, 08.01.2013
Datum Zeit Temperatur Luftfeuchte Luftdruck Regen Wind Richtung Richtung Sonnenschein ET UV Solar Taupunkt Windchill Windben
08.01.2013 00:00 4,9 C 92 % 1026,5 hPa 0,0 l/m 0,0 km/h (0 Bft) W-NW 285 0 min 0,000 mm 0,0 UV-I 0 W/m 3,7 C 4,9 C 0,0 km/h (0 Bft)
08.01.2013 00:05 4,9 C 92 % 1026,3 hPa 0,0 l/m 0,0 km/h (0 Bft) W-NW 285 0 min 0,000 mm 0,0 UV-I 0 W/m 3,7 C 4,9 C 0,0 km/h (0 Bft)
08.01.2013 00:10 4,9 C 92 % 1026,4 hPa 0,0 l/m 0,0 km/h (0 Bft) W-NW 285 0 min 0,000 mm 0,0 UV-I 0 W/m 3,7 C 4,9 C 0,0 km/h (0 Bft)
08.01.2013 00:15 4,8 C 92 % 1026,4 hPa 0,0 l/m 0,0 km/h (0 Bft) W-NW 285 0 min 0,000 mm 0,0 UV-I 0 W/m 3,6 C 4,8 C 0,0 km/h (0 Bft)
08.01.2013 00:20 4,8 C 92 % 1026,5 hPa 0,0 l/m 0,0 km/h (0 Bft) W-NW 285 0 min 0,000 mm 0,0 UV-I 0 W/m 3,6 C 4,8 C 0,0 km/h (0 Bft)
08.01.2013 00:25 4,8 C 92 % 1026,5 hPa 0,0 l/m 0,0 km/h (0 Bft) W-NW 285 0 min 0,000 mm 0,0 UV-I 0 W/m 3,6 C 4,8 C 0,0 km/h (0 Bft)
08.01.2013 00:30 4,7 C 92 % 1026,4 hPa 0,0 l/m 0,0 km/h (0 Bft) W-NW 285 0 min 0,000 mm 0,0 UV-I 0 W/m 3,5 C 4,7 C 0,0 km/h (0 Bft)
08.01.2013 00:35 4,7 C 92 % 1026,3 hPa 0,0 l/m 0,1 km/h (0 Bft) W-NW 285 0 min 0,000 mm 0,0 UV-I 0 W/m 3,5 C 4,7 C 1,6 km/h (1 Bft)
08.01.2013 00:40 4,6 C 92 % 1026,3 hPa 0,0 l/m 0,0 km/h (0 Bft) W-NW 285 0 min 0,000 mm 0,0 UV-I 0 W/m 3,4 C 4,6 C 0,0 km/h (0 Bft)
08.01.2013 00:45 4,6 C 92 % 1026,1 hPa 0,0 l/m 0,0 km/h (0 Bft) W-NW 285 0 min 0,000 mm 0,0 UV-I 0 W/m 3,4 C 4,6 C 0,0 km/h (0 Bft)
08.01.2013 00:50 4,5 C 92 % 1026,0 hPa 0,0 l/m 0,0 km/h (0 Bft) W-NW 285 0 min 0,000 mm 0,0 UV-I 0 W/m 3,3 C 4,5 C 0,0 km/h (0 Bft)
08.01.2013 00:55 4,4 C 92 % 1025,9 hPa 0,0 l/m 0,0 km/h (0 Bft) W-NW 285 0 min 0,000 mm 0,0 UV-I 0 W/m 3,2 C 4,4 C 0,0 km/h (0 Bft)
08.01.2013 01:00 4,4 C 93 % 1025,8 hPa 0,0 l/m 0,0 km/h (0 Bft) W-NW 285 0 min 0,000 mm 0,0 UV-I 0 W/m 3,4 C 4,4 C 0,0 km/h (0 Bft)
08.01.2013 01:05 4,4 C 93 % 1025,7 hPa 0,0 l/m 0,0 km/h (0 Bft) W-NW 285 0 min 0,000 mm 0,0 UV-I 0 W/m 3,4 C 4,4 C 0,0 km/h (0 Bft)
08.01.2013 01:10 4,3 C 93 % 1025,8 hPa 0,0 l/m 0,0 km/h (0 Bft) W-NW 285 0 min 0,000 mm 0,0 UV-I 0 W/m 3,3 C 4,3 C 0,0 km/h (0 Bft)
08.01.2013 01:15 4,3 C 93 % 1025,9 hPa 0,0 l/m 0,0 km/h (0 Bft) W-NW 285 0 min 0,000 mm 0,0 UV-I 0 W/m 3,3 C 4,3 C 0,0 km/h (0 Bft)
08.01.2013 01:20 4,3 C 93 % 1025,7 hPa 0,0 l/m 0,0 km/h (0 Bft) W-NW 285 0 min 0,000 mm 0,0 UV-I 0 W/m 3,3 C 4,3 C 0,0 km/h (0 Bft)
08.01.2013 01:25 4,2 C 93 % 1025,8 hPa 0,0 l/m 0,0 km/h (0 Bft) W-NW 285 0 min 0,000 mm 0,0 UV-I 0 W/m 3,2 C 4,2 C 0,0 km/h (0 Bft)
08.01.2013 01:30 4,2 C 93 % 1025,8 hPa 0,0 l/m 0,0 km/h (0 Bft) W-NW 285 0 min 0,000 mm 0,0 UV-I 0 W/m 3,2 C 4,2 C 0,0 km/h (0 Bft)
08.01.2013 01:35 4,2 C 93 % 1025,8 hPa 0,0 l/m 0,0 km/h (0 Bft) W-NW 285 0 min 0,000 mm 0,0 UV-I 0 W/m 3,2 C 4,2 C 0,0 km/h (0 Bft)
08.01.2013 01:40 4,1 C 93 % 1025,9 hPa 0,0 l/m 0,0 km/h (0 Bft) W-NW 285 0 min 0,000 mm 0,0 UV-I 0 W/m 3,1 C 4,1 C 0,0 km/h (0 Bft)
08.01.2013 01:45 4,1 C 93 % 1025,8 hPa 0,0 l/m 0,0 km/h (0 Bft) W-NW 285 0 min 0,000 mm 0,0 UV-I 0 W/m 3,1 C 4,1 C 0,0 km/h (0 Bft)
08.01.2013 01:50 4,0 C 93 % 1025,9 hPa 0,0 l/m 0,0 km/h (0 Bft) W-NW 285 0 min 0,000 mm 0,0 UV-I 0 W/m 3,0 C 4,0 C 0,0 km/h (0 Bft)
08.01.2013 01:55 4,0 C 93 % 1025,8 hPa 0,0 l/m 0,0 km/h (0 Bft) W-NW 285 0 min 0,000 mm 0,0 UV-I 0 W/m 3,0 C 4,0 C 0,0 km/h (0 Bft)
08.01.2013 02:00 3,9 C 93 % 1025,7 hPa 0,0 l/m 0,0 km/h (0 Bft) W-NW 285 0 min 0,000 mm 0,0 UV-I 0 W/m 2,9 C 3,9 C 0,0 km/h (0 Bft)
08.01.2013 02:05 3,8 C 93 % 1025,5 hPa 0,0 l/m 0,2 km/h (0 Bft) W-NW 285 0 min 0,000 mm 0,0 UV-I 0 W/m 2,8 C 3,8 C 1,6 km/h (1 Bft)
08.01.2013 02:10 3,7 C 93 % 1025,4 hPa 0,0 l/m 0,5 km/h (0 Bft) W-NW 285 0 min 0,000 mm 0,0 UV-I 0 W/m 2,7 C 3,7 C 1,6 km/h (1 Bft)
08.01.2013 02:15 3,7 C 93 % 1025,6 hPa 0,0 l/m 0,1 km/h (0 Bft) W-NW 285 0 min 0,000 mm 0,0 UV-I 0 W/m 2,7 C 3,7 C 1,6 km/h (1 Bft)
08.01.2013 02:20 3,7 C 94 % 1025,5 hPa 0,0 l/m 0,0 km/h (0 Bft) W-NW 285 0 min 0,000 mm 0,0 UV-I 0 W/m 2,8 C 3,7 C 0,0 km/h (0 Bft)
08.01.2013 02:25 3,7 C 94 % 1025,5 hPa 0,0 l/m 0,0 km/h (0 Bft) W-NW 285 0 min 0,000 mm 0,0 UV-I 0 W/m 2,8 C 3,7 C 1,6 km/h (1 Bft)
08.01.2013 02:30 3,7 C 94 % 1025,5 hPa 0,0 l/m 0,0 km/h (0 Bft) W-NW 285 0 min 0,000 mm 0,0 UV-I 0 W/m 2,8 C 3,7 C 0,0 km/h (0 Bft)
08.01.2013 02:35 3,7 C 94 % 1025,6 hPa 0,0 l/m 0,0 km/h (0 Bft) W-NW 285 0 min 0,000 mm 0,0 UV-I 0 W/m 2,8 C 3,7 C 0,0 km/h (0 Bft)
08.01.2013 02:40 3,6 C 94 % 1025,6 hPa 0,0 l/m 0,0 km/h (0 Bft) W-NW 285 0 min 0,000 mm 0,0 UV-I 0 W/m 2,7 C 3,6 C 0,0 km/h (0 Bft)
08.01.2013 02:45 3,6 C 94 % 1025,5 hPa 0,0 l/m 0,0 km/h (0 Bft) W-NW 285 0 min 0,000 mm 0,0 UV-I 0 W/m 2,7 C 3,6 C 0,0 km/h (0 Bft)
08.01.2013 02:50 3,5 C 94 % 1025,5 hPa 0,0 l/m 0,0 km/h (0 Bft) W-NW 285 0 min 0,000 mm 0,0 UV-I 0 W/m 2,6 C 3,5 C 0,0 km/h (0 Bft)
08.01.2013 02:55 3,4 C 94 % 1025,5 hPa 0,0 l/m 0,0 km/h (0 Bft) W-NW 285 0 min 0,000 mm 0,0 UV-I 0 W/m 2,5 C 3,4 C 0,0 km/h (0 Bft)
08.01.2013 03:00 3,4 C 94 % 1025,5 hPa 0,0 l/m 0,0 km/h (0 Bft) W-NW 285 0 min 0,000 mm 0,0 UV-I 0 W/m 2,5 C 3,4 C 0,0 km/h (0 Bft)
08.01.2013 03:05 3,3 C 94 % 1025,5 hPa 0,0 l/m 0,0 km/h (0 Bft) W-NW 285 0 min 0,000 mm 0,0 UV-I 0 W/m 2,4 C 3,3 C 0,0 km/h (0 Bft)
08.01.2013 03:10 3,3 C 94 % 1025,5 hPa 0,0 l/m 0,0 km/h (0 Bft) W-NW 285 0 min 0,000 mm 0,0 UV-I 0 W/m 2,4 C 3,3 C 0,0 km/h (0 Bft)
08.01.2013 03:15 3,4 C 94 % 1025,4 hPa 0,0 l/m 0,0 km/h (0 Bft) W-NW 285 0 min 0,000 mm 0,0 UV-I 0 W/m 2,5 C 3,4 C 0,0 km/h (0 Bft)
08.01.2013 03:20 3,4 C 94 % 1025,4 hPa 0,0 l/m 0,0 km/h (0 Bft) W-NW 285 0 min 0,000 mm 0,0 UV-I 0 W/m 2,5 C 3,4 C 0,0 km/h (0 Bft)
08.01.2013 03:25 3,4 C 94 % 1025,5 hPa 0,0 l/m 0,3 km/h (0 Bft) W-NW 285 0 min 0,000 mm 0,0 UV-I 0 W/m 2,5 C 3,4 C 1,6 km/h (1 Bft)
08.01.2013 03:30 3,4 C 94 % 1025,5 hPa 0,0 l/m 0,5 km/h (0 Bft) W-NW 285 0 min 0,000 mm 0,0 UV-I 0 W/m 2,5 C 3,4 C 3,2 km/h (1 Bft)
08.01.2013 03:35 3,3 C 94 % 1025,4 hPa 0,0 l/m 1,6 km/h (1 Bft) W 273 0 min 0,000 mm 0,0 UV-I 0 W/m 2,4 C 3,3 C 4,8 km/h (1 Bft)
08.01.2013 03:40 3,3 C 94 % 1025,4 hPa 0,0 l/m 2,3 km/h (1 Bft) W 281 0 min 0,000 mm 0,0 UV-I 0 W/m 2,4 C 3,3 C 4,8 km/h (1 Bft)
08.01.2013 03:45 3,3 C 95 % 1025,5 hPa 0,0 l/m 2,3 km/h (1 Bft) NW 304 0 min 0,000 mm 0,0 UV-I 0 W/m 2,6 C 3,3 C 4,8 km/h (1 Bft)
08.01.2013 03:50 3,3 C 95 % 1025,5 hPa 0,0 l/m 0,0 km/h (0 Bft) NW 304 0 min 0,000 mm 0,0 UV-I 0 W/m 2,6 C 3,3 C 0,0 km/h (0 Bft)
08.01.2013 03:55 3,3 C 95 % 1025,5 hPa 0,0 l/m 0,0 km/h (0 Bft) NW 304 0 min 0,000 mm 0,0 UV-I 0 W/m 2,6 C 3,3 C 0,0 km/h (0 Bft)
08.01.2013 04:00 3,3 C 95 % 1025,6 hPa 0,0 l/m 0,4 km/h (0 Bft) W-NW 282 0 min 0,000 mm 0,0 UV-I 0 W/m 2,6 C 3,3 C 3,2 km/h (1 Bft)
08.01.2013 04:05 3,4 C 95 % 1025,3 hPa 0,0 l/m 1,2 km/h (1 Bft) SW 221 0 min 0,000 mm 0,0 UV-I 0 W/m 2,7 C 3,4 C 3,2 km/h (1 Bft)
08.01.2013 04:10 3,3 C 95 % 1025,1 hPa 0,0 l/m 1,0 km/h (0 Bft) SW 227 0 min 0,000 mm 0,0 UV-I 0 W/m 2,6 C 3,3 C 3,2 km/h (1 Bft)
08.01.2013 04:15 3,4 C 95 % 1025,1 hPa 0,0 l/m 2,9 km/h (1 Bft) W 267 0 min 0,000 mm 0,0 UV-I 0 W/m 2,7 C 3,4 C 6,4 km/h (2 Bft)
08.01.2013 04:20 3,6 C 95 % 1024,9 hPa 0,0 l/m 3,0 km/h (1 Bft) W 260 0 min 0,000 mm 0,0 UV-I 0 W/m 2,9 C 3,6 C 8,0 km/h (2 Bft)
08.01.2013 04:25 3,6 C 95 % 1024,9 hPa 0,0 l/m 2,7 km/h (1 Bft) W 280 0 min 0,000 mm 0,0 UV-I 0 W/m 2,9 C 3,6 C 6,4 km/h (2 Bft)
08.01.2013 04:30 3,7 C 95 % 1025,0 hPa 0,0 l/m 3,4 km/h (1 Bft) W-NW 290 0 min 0,000 mm 0,0 UV-I 0 W/m 3,0 C 3,7 C 6,4 km/h (2 Bft)
08.01.2013 04:35 3,8 C 95 % 1025,1 hPa 0,0 l/m 3,4 km/h (1 Bft) W-NW 294 0 min 0,000 mm 0,0 UV-I 0 W/m 3,1 C 3,8 C 8,0 km/h (2 Bft)
08.01.2013 04:40 3,9 C 95 % 1025,2 hPa 0,0 l/m 3,5 km/h (1 Bft) W-NW 291 0 min 0,000 mm 0,0 UV-I 0 W/m 3,2 C 3,9 C 6,4 km/h (2 Bft)
08.01.2013 04:45 4,0 C 95 % 1025,0 hPa 0,0 l/m 3,2 km/h (1 Bft) NW 309 0 min 0,000 mm 0,0 UV-I 0 W/m 3,3 C 4,0 C 6,4 km/h (2 Bft)
08.01.2013 04:50 4,0 C 95 % 1024,7 hPa 0,0 l/m 2,5 km/h (1 Bft) W-SW 252 0 min 0,000 mm 0,0 UV-I 0 W/m 3,3 C 4,0 C 4,8 km/h (1 Bft)
08.01.2013 04:55 3,9 C 94 % 1024,9 hPa 0,0 l/m 1,8 km/h (1 Bft) W 265 0 min 0,000 mm 0,0 UV-I 0 W/m 3,0 C 3,9 C 4,8 km/h (1 Bft)
08.01.2013 05:00 3,9 C 95 % 1024,7 hPa 0,0 l/m 2,5 km/h (1 Bft) W 262 0 min 0,000 mm 0,0 UV-I 0 W/m 3,2 C 3,9 C 4,8 km/h (1 Bft)
08.01.2013 05:05 3,9 C 94 % 1024,7 hPa 0,0 l/m 2,5 km/h (1 Bft) W-NW 302 0 min 0,000 mm 0,0 UV-I 0 W/m 3,0 C 3,9 C 4,8 km/h (1 Bft)
08.01.2013 05:10 4,0 C 94 % 1024,7 hPa 0,0 l/m 4,3 km/h (1 Bft) W 281 0 min 0,000 mm 0,0 UV-I 0 W/m 3,1 C 4,0 C 8,0 km/h (2 Bft)
08.01.2013 05:15 4,1 C 94 % 1024,7 hPa 0,0 l/m 3,6 km/h (1 Bft) W 268 0 min 0,000 mm 0,0 UV-I 0 W/m 3,2 C 4,1 C 9,7 km/h (2 Bft)
08.01.2013 05:20 4,2 C 94 % 1024,3 hPa 0,0 l/m 2,1 km/h (1 Bft) W-SW 245 0 min 0,000 mm 0,0 UV-I 0 W/m 3,3 C 4,2 C 6,4 km/h (2 Bft)
08.01.2013 05:25 4,3 C 94 % 1024,3 hPa 0,0 l/m 0,1 km/h (0 Bft) W-SW 245 0 min 0,000 mm 0,0 UV-I 0 W/m 3,4 C 4,3 C 1,6 km/h (1 Bft)
08.01.2013 05:30 4,2 C 93 % 1024,3 hPa 0,0 l/m 1,7 km/h (1 Bft) W-NW 298 0 min 0,000 mm 0,0 UV-I 0 W/m 3,2 C 4,2 C 4,8 km/h (1 Bft)
08.01.2013 05:35 4,2 C 93 % 1024,2 hPa 0,0 l/m 2,2 km/h (1 Bft) W-NW 300 0 min 0,000 mm 0,0 UV-I 0 W/m 3,2 C 4,2 C 4,8 km/h (1 Bft)
08.01.2013 05:40 4,3 C 93 % 1024,3 hPa 0,0 l/m 3,2 km/h (1 Bft) W-NW 302 0 min 0,000 mm 0,0 UV-I 0 W/m 3,3 C 4,3 C 6,4 km/h (2 Bft)
08.01.2013 05:45 4,3 C 93 % 1024,4 hPa 0,0 l/m 4,1 km/h (1 Bft) W-NW 288 0 min 0,000 mm 0,0 UV-I 0 W/m 3,3 C 4,3 C 8,0 km/h (2 Bft)
08.01.2013 05:50 4,4 C 93 % 1024,4 hPa 0,0 l/m 3,3 km/h (1 Bft) NW 309 0 min 0,000 mm 0,0 UV-I 0 W/m 3,4 C 4,4 C 6,4 km/h (2 Bft)
08.01.2013 05:55 4,5 C 93 % 1024,3 hPa 0,0 l/m 4,3 km/h (1 Bft) W-NW 296 0 min 0,000 mm 0,0 UV-I 0 W/m 3,5 C 4,5 C 9,7 km/h (2 Bft)
08.01.2013 06:00 4,6 C 92 % 1024,4 hPa 0,0 l/m 2,8 km/h (1 Bft) W-SW 250 0 min 0,000 mm 0,0 UV-I 0 W/m 3,4 C 4,6 C 6,4 km/h (2 Bft)
08.01.2013 06:05 4,6 C 92 % 1024,5 hPa 0,0 l/m 3,4 km/h (1 Bft) W 264 0 min 0,000 mm 0,0 UV-I 0 W/m 3,4 C 4,6 C 8,0 km/h (2 Bft)
08.01.2013 06:10 4,6 C 92 % 1024,6 hPa 0,0 l/m 3,8 km/h (1 Bft) W-NW 302 0 min 0,000 mm 0,0 UV-I 0 W/m 3,4 C 4,6 C 8,0 km/h (2 Bft)
08.01.2013 06:15 4,7 C 93 % 1024,7 hPa 0,0 l/m 5,9 km/h (2 Bft) W-NW 288 0 min 0,000 mm 0,0 UV-I 0 W/m 3,7 C 4,7 C 12,9 km/h (3 Bft)
08.01.2013 06:20 4,7 C 92 % 1024,8 hPa 0,0 l/m 4,5 km/h (1 Bft) W 273 0 min 0,000 mm 0,0 UV-I 0 W/m 3,5 C 4,7 C 8,0 km/h (2 Bft)
08.01.2013 06:25 4,7 C 92 % 1024,9 hPa 0,0 l/m 4,0 km/h (1 Bft) W-NW 294 0 min 0,000 mm 0,0 UV-I 0 W/m 3,5 C 4,7 C 8,0 km/h (2 Bft)
08.01.2013 06:30 4,8 C 92 % 1024,8 hPa 0,0 l/m 7,0 km/h (2 Bft) W 270 0 min 0,000 mm 0,0 UV-I 0 W/m 3,6 C 4,3 C 16,1 km/h (3 Bft)
08.01.2013 06:35 4,8 C 92 % 1024,7 hPa 0,0 l/m 6,2 km/h (2 Bft) W-NW 300 0 min 0,000 mm 0,0 UV-I 0 W/m 3,6 C 4,8 C 14,5 km/h (3 Bft)
08.01.2013 06:40 4,8 C 92 % 1024,8 hPa 0,0 l/m 6,8 km/h (2 Bft) W-SW 248 0 min 0,000 mm 0,0 UV-I 0 W/m 3,6 C 4,5 C 14,5 km/h (3 Bft)
08.01.2013 06:45 4,9 C 92 % 1024,9 hPa 0,0 l/m 8,5 km/h (2 Bft) W-NW 293 0 min 0,000 mm 0,0 UV-I 0 W/m 3,7 C 3,1 C 19,3 km/h (3 Bft)
08.01.2013 06:50 4,9 C 91 % 1024,9 hPa 0,0 l/m 6,5 km/h (2 Bft) W 277 0 min 0,000 mm 0,0 UV-I 0 W/m 3,6 C 4,8 C 14,5 km/h (3 Bft)
08.01.2013 06:55 4,9 C 92 % 1024,9 hPa 0,0 l/m 5,0 km/h (1 Bft) W-NW 301 0 min 0,000 mm 0,0 UV-I 0 W/m 3,7 C 4,9 C 9,7 km/h (2 Bft)
08.01.2013 07:00 4,9 C 91 % 1024,9 hPa 0,0 l/m 3,0 km/h (1 Bft) W-NW 287 0 min 0,000 mm 0,0 UV-I 0 W/m 3,6 C 4,9 C 6,4 km/h (2 Bft)
08.01.2013 07:05 4,9 C 92 % 1024,9 hPa 0,0 l/m 4,2 km/h (1 Bft) W-SW 255 0 min 0,000 mm 0,0 UV-I 0 W/m 3,7 C 4,9 C 9,7 km/h (2 Bft)
08.01.2013 07:10 4,9 C 92 % 1024,8 hPa 0,0 l/m 4,3 km/h (1 Bft) W 267 0 min 0,000 mm 0,0 UV-I 0 W/m 3,7 C 4,9 C 8,0 km/h (2 Bft)
08.01.2013 07:15 4,9 C 92 % 1024,8 hPa 0,0 l/m 5,7 km/h (1 Bft) W 275 0 min 0,000 mm 0,0 UV-I 0 W/m 3,7 C 4,9 C 11,3 km/h (2 Bft)
08.01.2013 07:20 4,9 C 92 % 1024,8 hPa 0,0 l/m 7,3 km/h (2 Bft) SW 234 0 min 0,000 mm 0,0 UV-I 0 W/m 3,7 C 4,1 C 12,9 km/h (3 Bft)
08.01.2013 07:25 4,9 C 92 % 1024,7 hPa 0,0 l/m 4,5 km/h (1 Bft) W 279 0 min 0,000 mm 0,0 UV-I 0 W/m 3,7 C 4,9 C 12,9 km/h (3 Bft)
08.01.2013 07:30 4,9 C 92 % 1024,8 hPa 0,0 l/m 2,8 km/h (1 Bft) W-SW 243 0 min 0,000 mm 0,0 UV-I 0 W/m 3,7 C 4,9 C 6,4 km/h (2 Bft)
08.01.2013 07:35 4,9 C 92 % 1024,8 hPa 0,0 l/m 4,4 km/h (1 Bft) W 280 0 min 0,000 mm 0,0 UV-I 0 W/m 3,7 C 4,9 C 9,7 km/h (2 Bft)
08.01.2013 07:40 4,9 C 92 % 1024,8 hPa 0,0 l/m 3,7 km/h (1 Bft) W-SW 239 0 min 0,000 mm 0,0 UV-I 0 W/m 3,7 C 4,9 C 6,4 km/h (2 Bft)
08.01.2013 07:45 4,9 C 92 % 1024,7 hPa 0,0 l/m 5,8 km/h (2 Bft) S-SW 205 0 min 0,000 mm 0,0 UV-I 0 W/m 3,7 C 4,9 C 12,9 km/h (3 Bft)
08.01.2013 07:50 4,9 C 92 % 1024,7 hPa 0,0 l/m 5,8 km/h (2 Bft) NW 309 0 min 0,000 mm 0,0 UV-I 0 W/m 3,7 C 4,9 C 12,9 km/h (3 Bft)
08.01.2013 07:55 4,9 C 92 % 1025,0 hPa 0,0 l/m 5,1 km/h (1 Bft) W 266 0 min 0,000 mm 0,0 UV-I 0 W/m 3,7 C 4,9 C 9,7 km/h (2 Bft)
08.01.2013 08:00 4,9 C 92 % 1024,8 hPa 0,0 l/m 5,7 km/h (1 Bft) W-SW 238 0 min 0,000 mm 0,0 UV-I 0 W/m 3,7 C 4,9 C 12,9 km/h (3 Bft)
08.01.2013 08:05 4,9 C 92 % 1024,9 hPa 0,0 l/m 5,6 km/h (1 Bft) W 267 0 min 0,000 mm 0,0 UV-I 0 W/m 3,7 C 4,9 C 9,7 km/h (2 Bft)
08.01.2013 08:10 4,9 C 92 % 1024,9 hPa 0,0 l/m 7,2 km/h (2 Bft) W 279 0 min 0,000 mm 0,0 UV-I 0 W/m 3,7 C 4,2 C 16,1 km/h (3 Bft)
08.01.2013 08:15 4,9 C 92 % 1024,9 hPa 0,0 l/m 7,6 km/h (2 Bft) W 278 0 min 0,000 mm 0,0 UV-I 0 W/m 3,7 C 3,8 C 16,1 km/h (3 Bft)
08.01.2013 08:20 4,9 C 92 % 1024,9 hPa 0,0 l/m 7,3 km/h (2 Bft) W-SW 251 0 min 0,000 mm 0,0 UV-I 0 W/m 3,7 C 4,1 C 16,1 km/h (3 Bft)
08.01.2013 08:25 4,9 C 92 % 1025,0 hPa 0,0 l/m 3,7 km/h (1 Bft) W 266 0 min 0,000 mm 0,0 UV-I 0 W/m 3,7 C 4,9 C 9,7 km/h (2 Bft)
08.01.2013 08:30 4,8 C 92 % 1025,1 hPa 0,0 l/m 4,7 km/h (1 Bft) W 265 0 min 0,000 mm 0,0 UV-I 0 W/m 3,6 C 4,8 C 9,7 km/h (2 Bft)
08.01.2013 08:35 4,8 C 92 % 1025,1 hPa 0,0 l/m 5,4 km/h (1 Bft) W-NW 293 0 min 0,000 mm 0,0 UV-I 0 W/m 3,6 C 4,8 C 11,3 km/h (2 Bft)
08.01.2013 08:40 4,8 C 93 % 1025,1 hPa 0,0 l/m 4,1 km/h (1 Bft) W 273 0 min 0,000 mm 0,0 UV-I 0 W/m 3,8 C 4,8 C 9,7 km/h (2 Bft)
08.01.2013 08:45 4,8 C 93 % 1025,1 hPa 0,0 l/m 4,4 km/h (1 Bft) W-NW 284 0 min 0,000 mm 0,0 UV-I 0 W/m 3,8 C 4,8 C 11,3 km/h (2 Bft)
08.01.2013 08:50 4,8 C 93 % 1025,1 hPa 0,0 l/m 5,2 km/h (1 Bft) W 262 0 min 0,000 mm 0,0 UV-I 0 W/m 3,8 C 4,8 C 11,3 km/h (2 Bft)
08.01.2013 08:55 4,9 C 93 % 1025,1 hPa 0,0 l/m 2,5 km/h (1 Bft) W-NW 286 0 min 0,000 mm 0,0 UV-I 0 W/m 3,9 C 4,9 C 6,4 km/h (2 Bft)
08.01.2013 09:00 4,8 C 93 % 1025,0 hPa 0,0 l/m 6,7 km/h (2 Bft) W-NW 284 0 min 0,000 mm 0,0 UV-I 0 W/m 3,8 C 4,6 C 16,1 km/h (3 Bft)
08.01.2013 09:05 4,8 C 93 % 1025,2 hPa 0,0 l/m 7,2 km/h (2 Bft) W 279 0 min 0,000 mm 0,0 UV-I 5 W/m 3,8 C 4,1 C 12,9 km/h (3 Bft)
08.01.2013 09:10 4,8 C 93 % 1025,4 hPa 0,0 l/m 6,3 km/h (2 Bft) NW 326 0 min 0,000 mm 0,0 UV-I 7 W/m 3,8 C 4,8 C 16,1 km/h (3 Bft)
08.01.2013 09:15 4,7 C 93 % 1025,4 hPa 0,0 l/m 7,6 km/h (2 Bft) W-NW 301 0 min 0,000 mm 0,0 UV-I 5 W/m 3,7 C 3,6 C 17,7 km/h (3 Bft)
08.01.2013 09:20 4,8 C 93 % 1025,4 hPa 0,0 l/m 2,4 km/h (1 Bft) W-NW 291 0 min 0,000 mm 0,0 UV-I 7 W/m 3,8 C 4,8 C 8,0 km/h (2 Bft)
08.01.2013 09:25 4,7 C 92 % 1025,4 hPa 0,0 l/m 5,2 km/h (1 Bft) NW 304 0 min 0,000 mm 0,0 UV-I 9 W/m 3,5 C 4,7 C 14,5 km/h (3 Bft)
08.01.2013 09:30 4,7 C 93 % 1025,4 hPa 0,0 l/m 2,7 km/h (1 Bft) W 277 0 min 0,000 mm 0,0 UV-I 5 W/m 3,7 C 4,7 C 6,4 km/h (2 Bft)
08.01.2013 09:35 4,7 C 93 % 1025,5 hPa 0,0 l/m 3,8 km/h (1 Bft) W-NW 299 0 min 0,000 mm 0,0 UV-I 7 W/m 3,7 C 4,7 C 11,3 km/h (2 Bft)
08.01.2013 09:40 4,6 C 92 % 1025,3 hPa 0,0 l/m 5,2 km/h (1 Bft) W 267 0 min 0,000 mm 0,0 UV-I 23 W/m 3,4 C 4,6 C 12,9 km/h (3 Bft)
08.01.2013 09:45 4,6 C 91 % 1025,4 hPa 0,0 l/m 5,6 km/h (1 Bft) NW 306 0 min 0,000 mm 0,0 UV-I 19 W/m 3,3 C 4,6 C 12,9 km/h (3 Bft)
08.01.2013 09:50 4,6 C 90 % 1025,4 hPa 0,0 l/m 7,7 km/h (2 Bft) W-NW 288 0 min 0,000 mm 0,0 UV-I 18 W/m 3,1 C 3,4 C 16,1 km/h (3 Bft)
08.01.2013 09:55 4,6 C 90 % 1025,4 hPa 0,0 l/m 6,1 km/h (2 Bft) W-NW 284 0 min 0,000 mm 0,0 UV-I 19 W/m 3,1 C 4,6 C 11,3 km/h (2 Bft)
08.01.2013 10:00 4,6 C 89 % 1025,5 hPa 0,0 l/m 5,8 km/h (2 Bft) W-NW 286 0 min 0,000 mm 0,0 UV-I 19 W/m 2,9 C 4,6 C 9,7 km/h (2 Bft)
08.01.2013 10:05 4,6 C 89 % 1025,6 hPa 0,0 l/m 4,8 km/h (1 Bft) W 278 0 min 0,000 mm 0,0 UV-I 25 W/m 2,9 C 4,6 C 11,3 km/h (2 Bft)
08.01.2013 10:10 4,6 C 89 % 1025,6 hPa 0,0 l/m 6,5 km/h (2 Bft) W 262 0 min 0,000 mm 0,0 UV-I 21 W/m 2,9 C 4,5 C 12,9 km/h (3 Bft)
08.01.2013 10:15 4,6 C 89 % 1025,6 hPa 0,0 l/m 5,5 km/h (1 Bft) NW 313 0 min 0,000 mm 0,0 UV-I 25 W/m 2,9 C 4,6 C 9,7 km/h (2 Bft)
08.01.2013 10:20 4,7 C 89 % 1025,8 hPa 0,0 l/m 4,3 km/h (1 Bft) W-NW 298 0 min 0,000 mm 0,0 UV-I 30 W/m 3,0 C 4,7 C 9,7 km/h (2 Bft)
08.01.2013 10:25 4,7 C 89 % 1025,9 hPa 0,0 l/m 5,0 km/h (1 Bft) W 261 0 min 0,000 mm 0,0 UV-I 33 W/m 3,0 C 4,7 C 11,3 km/h (2 Bft)
08.01.2013 10:30 4,7 C 89 % 1025,8 hPa 0,0 l/m 4,0 km/h (1 Bft) S-SW 202 0 min 0,000 mm 0,0 UV-I 35 W/m 3,0 C 4,7 C 9,7 km/h (2 Bft)
08.01.2013 10:35 4,8 C 89 % 1025,9 hPa 0,0 l/m 3,0 km/h (1 Bft) W-NW 293 0 min 0,000 mm 0,0 UV-I 16 W/m 3,1 C 4,8 C 8,0 km/h (2 Bft)
08.01.2013 10:40 4,8 C 89 % 1026,0 hPa 0,0 l/m 4,1 km/h (1 Bft) W-NW 295 0 min 0,000 mm 0,0 UV-I 21 W/m 3,1 C 4,8 C 9,7 km/h (2 Bft)
08.01.2013 10:45 4,7 C 89 % 1026,0 hPa 0,0 l/m 8,3 km/h (2 Bft) W-NW 292 0 min 0,000 mm 0,0 UV-I 19 W/m 3,0 C 3,0 C 14,5 km/h (3 Bft)
08.01.2013 10:50 4,7 C 89 % 1026,0 hPa 0,0 l/m 6,4 km/h (2 Bft) NW 320 0 min 0,000 mm 0,0 UV-I 18 W/m 3,0 C 4,7 C 14,5 km/h (3 Bft)
08.01.2013 10:55 4,7 C 89 % 1026,0 hPa 0,0 l/m 2,4 km/h (1 Bft) W 278 0 min 0,000 mm 0,0 UV-I 25 W/m 3,0 C 4,7 C 6,4 km/h (2 Bft)
08.01.2013 11:00 4,7 C 89 % 1026,0 hPa 0,0 l/m 5,8 km/h (2 Bft) NW 306 0 min 0,000 mm 0,0 UV-I 30 W/m 3,0 C 4,7 C 11,3 km/h (2 Bft)
08.01.2013 11:05 4,7 C 89 % 1025,8 hPa 0,0 l/m 3,7 km/h (1 Bft) W 271 0 min 0,025 mm 0,0 UV-I 44 W/m 3,0 C 4,7 C 8,0 km/h (2 Bft)
08.01.2013 11:10 4,8 C 89 % 1025,9 hPa 0,0 l/m 5,0 km/h (1 Bft) NW 304 0 min 0,000 mm 0,0 UV-I 51 W/m 3,1 C 4,8 C 9,7 km/h (2 Bft)
08.01.2013 11:15 4,8 C 89 % 1025,8 hPa 0,0 l/m 4,0 km/h (1 Bft) W-SW 255 0 min 0,000 mm 0,0 UV-I 58 W/m 3,1 C 4,8 C 8,0 km/h (2 Bft)
08.01.2013 11:20 4,8 C 89 % 1025,8 hPa 0,0 l/m 5,3 km/h (1 Bft) W-SW 258 0 min 0,000 mm 0,0 UV-I 74 W/m 3,1 C 4,8 C 11,3 km/h (2 Bft)
08.01.2013 11:25 4,9 C 89 % 1025,7 hPa 0,0 l/m 4,4 km/h (1 Bft) W-SW 257 0 min 0,000 mm 0,0 UV-I 58 W/m 3,2 C 4,9 C 11,3 km/h (2 Bft)
08.01.2013 11:30 4,9 C 88 % 1025,7 hPa 0,0 l/m 4,0 km/h (1 Bft) S-SW 212 0 min 0,000 mm 0,0 UV-I 49 W/m 3,1 C 4,9 C 8,0 km/h (2 Bft)
08.01.2013 11:35 4,9 C 88 % 1025,6 hPa 0,0 l/m 3,9 km/h (1 Bft) W-SW 247 0 min 0,000 mm 0,0 UV-I 58 W/m 3,1 C 4,9 C 8,0 km/h (2 Bft)
08.01.2013 11:40 5,0 C 88 % 1025,6 hPa 0,0 l/m 4,5 km/h (1 Bft) W-NW 302 0 min 0,000 mm 0,0 UV-I 51 W/m 3,2 C 5,0 C 11,3 km/h (2 Bft)
08.01.2013 11:45 5,0 C 88 % 1025,6 hPa 0,0 l/m 2,9 km/h (1 Bft) W-SW 242 0 min 0,000 mm 0,0 UV-I 46 W/m 3,2 C 5,0 C 6,4 km/h (2 Bft)
08.01.2013 11:50 5,0 C 88 % 1025,6 hPa 0,0 l/m 4,7 km/h (1 Bft) W-SW 255 0 min 0,000 mm 0,0 UV-I 46 W/m 3,2 C 5,0 C 11,3 km/h (2 Bft)
08.01.2013 11:55 5,1 C 88 % 1025,6 hPa 0,0 l/m 3,6 km/h (1 Bft) W 270 0 min 0,000 mm 0,0 UV-I 40 W/m 3,3 C 5,1 C 8,0 km/h (2 Bft)
08.01.2013 12:00 5,0 C 88 % 1025,7 hPa 0,0 l/m 5,8 km/h (2 Bft) W 260 0 min 0,000 mm 0,0 UV-I 39 W/m 3,2 C 5,0 C 9,7 km/h (2 Bft)
08.01.2013 12:05 5,1 C 89 % 1025,7 hPa 0,0 l/m 3,8 km/h (1 Bft) W 269 0 min 0,026 mm 0,0 UV-I 49 W/m 3,4 C 5,1 C 6,4 km/h (2 Bft)
08.01.2013 12:10 5,1 C 88 % 1025,6 hPa 0,0 l/m 3,7 km/h (1 Bft) W-NW 291 0 min 0,000 mm 0,0 UV-I 58 W/m 3,3 C 5,1 C 9,7 km/h (2 Bft)
08.01.2013 12:15 5,1 C 89 % 1025,6 hPa 0,0 l/m 3,6 km/h (1 Bft) W 280 0 min 0,000 mm 0,0 UV-I 70 W/m 3,4 C 5,1 C 8,0 km/h (2 Bft)
08.01.2013 12:20 5,1 C 89 % 1025,6 hPa 0,0 l/m 2,1 km/h (1 Bft) W-NW 289 0 min 0,000 mm 0,0 UV-I 49 W/m 3,4 C 5,1 C 8,0 km/h (2 Bft)
08.01.2013 12:25 5,2 C 89 % 1025,6 hPa 0,0 l/m 1,7 km/h (1 Bft) W 281 0 min 0,000 mm 0,0 UV-I 51 W/m 3,5 C 5,2 C 6,4 km/h (2 Bft)
08.01.2013 12:30 5,2 C 88 % 1025,6 hPa 0,0 l/m 3,6 km/h (1 Bft) W-NW 295 0 min 0,000 mm 0,0 UV-I 53 W/m 3,4 C 5,2 C 9,7 km/h (2 Bft)
08.01.2013 12:35 5,2 C 89 % 1025,5 hPa 0,0 l/m 2,9 km/h (1 Bft) W 275 0 min 0,000 mm 0,0 UV-I 63 W/m 3,5 C 5,2 C 6,4 km/h (2 Bft)
08.01.2013 12:40 5,3 C 88 % 1025,5 hPa 0,0 l/m 2,8 km/h (1 Bft) W-NW 284 0 min 0,000 mm 0,0 UV-I 72 W/m 3,5 C 5,3 C 8,0 km/h (2 Bft)
08.01.2013 12:45 5,3 C 88 % 1025,4 hPa 0,0 l/m 3,2 km/h (1 Bft) W 262 0 min 0,000 mm 0,0 UV-I 69 W/m 3,5 C 5,3 C 9,7 km/h (2 Bft)
08.01.2013 12:50 5,3 C 88 % 1025,3 hPa 0,0 l/m 3,9 km/h (1 Bft) W-NW 294 0 min 0,000 mm 0,0 UV-I 81 W/m 3,5 C 5,3 C 11,3 km/h (2 Bft)
08.01.2013 12:55 5,3 C 88 % 1025,1 hPa 0,0 l/m 6,3 km/h (2 Bft) W 278 0 min 0,000 mm 0,0 UV-I 56 W/m 3,5 C 5,3 C 17,7 km/h (3 Bft)
08.01.2013 13:00 5,3 C 88 % 1025,1 hPa 0,0 l/m 7,2 km/h (2 Bft) W 274 0 min 0,000 mm 0,0 UV-I 44 W/m 3,5 C 4,6 C 14,5 km/h (3 Bft)
08.01.2013 13:05 5,3 C 88 % 1025,1 hPa 0,0 l/m 3,6 km/h (1 Bft) W-NW 290 0 min 0,025 mm 0,0 UV-I 53 W/m 3,5 C 5,3 C 9,7 km/h (2 Bft)
08.01.2013 13:10 5,4 C 88 % 1025,2 hPa 0,0 l/m 2,9 km/h (1 Bft) W-NW 285 0 min 0,000 mm 0,0 UV-I 47 W/m 3,6 C 5,4 C 6,4 km/h (2 Bft)
08.01.2013 13:15 5,4 C 88 % 1025,1 hPa 0,0 l/m 0,7 km/h (0 Bft) W-NW 285 0 min 0,000 mm 0,0 UV-I 60 W/m 3,6 C 5,4 C 3,2 km/h (1 Bft)
08.01.2013 13:20 5,5 C 88 % 1025,1 hPa 0,0 l/m 2,7 km/h (1 Bft) SW 225 0 min 0,000 mm 0,0 UV-I 67 W/m 3,7 C 5,5 C 6,4 km/h (2 Bft)
08.01.2013 13:25 5,6 C 88 % 1025,1 hPa 0,0 l/m 4,3 km/h (1 Bft) W-NW 296 0 min 0,000 mm 0,0 UV-I 49 W/m 3,8 C 5,6 C 9,7 km/h (2 Bft)
08.01.2013 13:30 5,6 C 88 % 1025,0 hPa 0,0 l/m 0,3 km/h (0 Bft) W-NW 296 0 min 0,000 mm 0,0 UV-I 56 W/m 3,8 C 5,6 C 3,2 km/h (1 Bft)
08.01.2013 13:35 5,6 C 88 % 1025,0 hPa 0,0 l/m 0,0 km/h (0 Bft) W-NW 296 0 min 0,000 mm 0,0 UV-I 44 W/m 3,8 C 5,6 C 0,0 km/h (0 Bft)
08.01.2013 13:40 5,7 C 88 % 1025,0 hPa 0,0 l/m 1,8 km/h (1 Bft) W-NW 294 0 min 0,000 mm 0,0 UV-I 40 W/m 3,9 C 5,7 C 4,8 km/h (1 Bft)
08.01.2013 13:45 5,7 C 88 % 1025,0 hPa 0,0 l/m 3,1 km/h (1 Bft) W 261 0 min 0,000 mm 0,0 UV-I 42 W/m 3,9 C 5,7 C 9,7 km/h (2 Bft)
08.01.2013 13:50 5,7 C 88 % 1025,0 hPa 0,0 l/m 4,7 km/h (1 Bft) W 264 0 min 0,000 mm 0,0 UV-I 39 W/m 3,9 C 5,7 C 11,3 km/h (2 Bft)
08.01.2013 13:55 5,7 C 88 % 1025,0 hPa 0,0 l/m 2,4 km/h (1 Bft) NW 306 0 min 0,000 mm 0,0 UV-I 33 W/m 3,9 C 5,7 C 4,8 km/h (1 Bft)
08.01.2013 14:00 5,7 C 88 % 1025,0 hPa 0,0 l/m 4,5 km/h (1 Bft) NW 324 0 min 0,000 mm 0,0 UV-I 28 W/m 3,9 C 5,7 C 11,3 km/h (2 Bft)
08.01.2013 14:05 5,7 C 88 % 1025,0 hPa 0,0 l/m 3,4 km/h (1 Bft) W 263 0 min 0,026 mm 0,0 UV-I 26 W/m 3,9 C 5,7 C 6,4 km/h (2 Bft)
08.01.2013 14:10 5,7 C 88 % 1025,0 hPa 0,0 l/m 1,7 km/h (1 Bft) NW 308 0 min 0,000 mm 0,0 UV-I 26 W/m 3,9 C 5,7 C 3,2 km/h (1 Bft)
08.01.2013 14:15 5,8 C 88 % 1024,9 hPa 0,0 l/m 3,3 km/h (1 Bft) NW 313 0 min 0,000 mm 0,0 UV-I 28 W/m 4,0 C 5,8 C 8,0 km/h (2 Bft)
08.01.2013 14:20 5,8 C 89 % 1025,0 hPa 0,0 l/m 4,9 km/h (1 Bft) W-NW 285 0 min 0,000 mm 0,0 UV-I 33 W/m 4,1 C 5,8 C 9,7 km/h (2 Bft)
08.01.2013 14:25 5,7 C 89 % 1025,0 hPa 0,0 l/m 7,2 km/h (2 Bft) W-NW 303 0 min 0,000 mm 0,0 UV-I 33 W/m 4,0 C 5,0 C 14,5 km/h (3 Bft)
08.01.2013 14:30 5,7 C 89 % 1024,9 hPa 0,0 l/m 5,3 km/h (1 Bft) NW 325 0 min 0,000 mm 0,0 UV-I 35 W/m 4,0 C 5,7 C 11,3 km/h (2 Bft)
08.01.2013 14:35 5,7 C 89 % 1024,9 hPa 0,0 l/m 6,0 km/h (2 Bft) W-NW 295 0 min 0,000 mm 0,0 UV-I 33 W/m 4,0 C 5,7 C 12,9 km/h (3 Bft)
08.01.2013 14:40 5,7 C 89 % 1025,0 hPa 0,0 l/m 7,8 km/h (2 Bft) W-NW 303 0 min 0,000 mm 0,0 UV-I 33 W/m 4,0 C 4,5 C 14,5 km/h (3 Bft)
08.01.2013 14:45 5,7 C 89 % 1025,1 hPa 0,0 l/m 6,5 km/h (2 Bft) W 277 0 min 0,000 mm 0,0 UV-I 37 W/m 4,0 C 5,6 C 14,5 km/h (3 Bft)
08.01.2013 14:50 5,7 C 89 % 1025,1 hPa 0,0 l/m 6,0 km/h (2 Bft) W-NW 302 0 min 0,000 mm 0,0 UV-I 33 W/m 4,0 C 5,7 C 12,9 km/h (3 Bft)
08.01.2013 14:55 5,7 C 89 % 1025,1 hPa 0,0 l/m 3,2 km/h (1 Bft) W 270 0 min 0,000 mm 0,0 UV-I 35 W/m 4,0 C 5,7 C 8,0 km/h (2 Bft)
08.01.2013 15:00 5,8 C 89 % 1025,1 hPa 0,0 l/m 4,8 km/h (1 Bft) W 275 0 min 0,000 mm 0,0 UV-I 32 W/m 4,1 C 5,8 C 11,3 km/h (2 Bft)
08.01.2013 15:05 5,8 C 89 % 1025,0 hPa 0,0 l/m 6,0 km/h (2 Bft) W 260 0 min 0,025 mm 0,0 UV-I 30 W/m 4,1 C 5,8 C 11,3 km/h (2 Bft)
08.01.2013 15:10 5,8 C 89 % 1025,2 hPa 0,0 l/m 4,4 km/h (1 Bft) W 277 0 min 0,000 mm 0,0 UV-I 23 W/m 4,1 C 5,8 C 8,0 km/h (2 Bft)
08.01.2013 15:15 5,8 C 89 % 1025,1 hPa 0,0 l/m 3,5 km/h (1 Bft) W-NW 288 0 min 0,000 mm 0,0 UV-I 19 W/m 4,1 C 5,8 C 9,7 km/h (2 Bft)
08.01.2013 15:20 5,8 C 89 % 1025,1 hPa 0,0 l/m 5,6 km/h (1 Bft) W-NW 286 0 min 0,000 mm 0,0 UV-I 21 W/m 4,1 C 5,8 C 11,3 km/h (2 Bft)
08.01.2013 15:25 5,8 C 89 % 1025,1 hPa 0,0 l/m 3,9 km/h (1 Bft) W 278 0 min 0,000 mm 0,0 UV-I 19 W/m 4,1 C 5,8 C 8,0 km/h (2 Bft)
08.01.2013 15:30 5,8 C 89 % 1025,2 hPa 0,0 l/m 3,4 km/h (1 Bft) W 277 0 min 0,000 mm 0,0 UV-I 18 W/m 4,1 C 5,8 C 9,7 km/h (2 Bft)
08.01.2013 15:35 5,8 C 89 % 1025,3 hPa 0,0 l/m 4,9 km/h (1 Bft) W-NW 284 0 min 0,000 mm 0,0 UV-I 14 W/m 4,1 C 5,8 C 11,3 km/h (2 Bft)
08.01.2013 15:40 5,8 C 89 % 1025,2 hPa 0,0 l/m 4,8 km/h (1 Bft) W-NW 300 0 min 0,000 mm 0,0 UV-I 11 W/m 4,1 C 5,8 C 9,7 km/h (2 Bft)
08.01.2013 15:45 5,8 C 89 % 1025,2 hPa 0,0 l/m 4,0 km/h (1 Bft) W-SW 256 0 min 0,000 mm 0,0 UV-I 9 W/m 4,1 C 5,8 C 8,0 km/h (2 Bft)
08.01.2013 15:50 5,8 C 89 % 1025,1 hPa 0,0 l/m 3,4 km/h (1 Bft) W-SW 244 0 min 0,000 mm 0,0 UV-I 11 W/m 4,1 C 5,8 C 6,4 km/h (2 Bft)
08.01.2013 15:55 5,8 C 89 % 1025,1 hPa 0,0 l/m 4,7 km/h (1 Bft) W-SW 247 0 min 0,000 mm 0,0 UV-I 7 W/m 4,1 C 5,8 C 8,0 km/h (2 Bft)
08.01.2013 16:00 5,7 C 89 % 1025,2 hPa 0,0 l/m 4,2 km/h (1 Bft) W 270 0 min 0,000 mm 0,0 UV-I 7 W/m 4,0 C 5,7 C 8,0 km/h (2 Bft)
08.01.2013 16:05 5,7 C 89 % 1025,2 hPa 0,0 l/m 3,4 km/h (1 Bft) W-SW 254 0 min 0,000 mm 0,0 UV-I 5 W/m 4,0 C 5,7 C 8,0 km/h (2 Bft)
08.01.2013 16:10 5,7 C 89 % 1025,2 hPa 0,0 l/m 4,3 km/h (1 Bft) W 262 0 min 0,000 mm 0,0 UV-I 5 W/m 4,0 C 5,7 C 8,0 km/h (2 Bft)
08.01.2013 16:15 5,7 C 89 % 1025,2 hPa 0,0 l/m 5,5 km/h (1 Bft) W-NW 293 0 min 0,000 mm 0,0 UV-I 5 W/m 4,0 C 5,7 C 11,3 km/h (2 Bft)
08.01.2013 16:20 5,7 C 89 % 1025,1 hPa 0,0 l/m 4,8 km/h (1 Bft) W 269 0 min 0,000 mm 0,0 UV-I 0 W/m 4,0 C 5,7 C 9,7 km/h (2 Bft)
08.01.2013 16:25 5,7 C 89 % 1025,2 hPa 0,0 l/m 4,5 km/h (1 Bft) W-NW 300 0 min 0,000 mm 0,0 UV-I 0 W/m 4,0 C 5,7 C 9,7 km/h (2 Bft)
08.01.2013 16:30 5,7 C 89 % 1025,3 hPa 0,0 l/m 4,1 km/h (1 Bft) W-SW 242 0 min 0,000 mm 0,0 UV-I 0 W/m 4,0 C 5,7 C 8,0 km/h (2 Bft)
08.01.2013 16:35 5,7 C 89 % 1025,2 hPa 0,0 l/m 3,7 km/h (1 Bft) W 275 0 min 0,000 mm 0,0 UV-I 0 W/m 4,0 C 5,7 C 8,0 km/h (2 Bft)
08.01.2013 16:40 5,7 C 89 % 1025,2 hPa 0,0 l/m 2,6 km/h (1 Bft) W 267 0 min 0,000 mm 0,0 UV-I 0 W/m 4,0 C 5,7 C 6,4 km/h (2 Bft)
08.01.2013 16:45 5,7 C 89 % 1025,2 hPa 0,0 l/m 3,2 km/h (1 Bft) W 263 0 min 0,000 mm 0,0 UV-I 0 W/m 4,0 C 5,7 C 4,8 km/h (1 Bft)
08.01.2013 16:50 5,7 C 89 % 1025,3 hPa 0,0 l/m 3,0 km/h (1 Bft) W 280 0 min 0,000 mm 0,0 UV-I 0 W/m 4,0 C 5,7 C 8,0 km/h (2 Bft)
08.01.2013 16:55 5,7 C 90 % 1025,3 hPa 0,0 l/m 4,2 km/h (1 Bft) W 269 0 min 0,000 mm 0,0 UV-I 0 W/m 4,2 C 5,7 C 11,3 km/h (2 Bft)
08.01.2013 17:00 5,7 C 90 % 1025,3 hPa 0,0 l/m 3,1 km/h (1 Bft) W-SW 239 0 min 0,000 mm 0,0 UV-I 0 W/m 4,2 C 5,7 C 6,4 km/h (2 Bft)
08.01.2013 17:05 5,7 C 90 % 1025,3 hPa 0,0 l/m 3,5 km/h (1 Bft) W 269 0 min 0,000 mm 0,0 UV-I 0 W/m 4,2 C 5,7 C 8,0 km/h (2 Bft)
08.01.2013 17:10 5,7 C 90 % 1025,4 hPa 0,0 l/m 3,4 km/h (1 Bft) W-SW 250 0 min 0,000 mm 0,0 UV-I 0 W/m 4,2 C 5,7 C 11,3 km/h (2 Bft)
08.01.2013 17:15 5,8 C 90 % 1025,4 hPa 0,0 l/m 2,9 km/h (1 Bft) W-SW 257 0 min 0,000 mm 0,0 UV-I 0 W/m 4,3 C 5,8 C 8,0 km/h (2 Bft)
08.01.2013 17:20 5,8 C 90 % 1025,3 hPa 0,0 l/m 2,9 km/h (1 Bft) W 264 0 min 0,000 mm 0,0 UV-I 0 W/m 4,3 C 5,8 C 9,7 km/h (2 Bft)
08.01.2013 17:25 5,8 C 90 % 1025,4 hPa 0,0 l/m 2,0 km/h (1 Bft) W-NW 298 0 min 0,000 mm 0,0 UV-I 0 W/m 4,3 C 5,8 C 6,4 km/h (2 Bft)
08.01.2013 17:30 5,7 C 90 % 1025,4 hPa 0,0 l/m 3,7 km/h (1 Bft) W 259 0 min 0,000 mm 0,0 UV-I 0 W/m 4,2 C 5,7 C 6,4 km/h (2 Bft)
08.01.2013 17:35 5,7 C 90 % 1025,5 hPa 0,0 l/m 3,7 km/h (1 Bft) W-NW 284 0 min 0,000 mm 0,0 UV-I 0 W/m 4,2 C 5,7 C 8,0 km/h (2 Bft)
08.01.2013 17:40 5,7 C 90 % 1025,4 hPa 0,0 l/m 5,9 km/h (2 Bft) W 280 0 min 0,000 mm 0,0 UV-I 0 W/m 4,2 C 5,7 C 12,9 km/h (3 Bft)
08.01.2013 17:45 5,7 C 90 % 1025,5 hPa 0,0 l/m 3,2 km/h (1 Bft) W-NW 291 0 min 0,000 mm 0,0 UV-I 0 W/m 4,2 C 5,7 C 9,7 km/h (2 Bft)
08.01.2013 17:50 5,8 C 90 % 1025,4 hPa 0,0 l/m 0,9 km/h (0 Bft) W-NW 286 0 min 0,000 mm 0,0 UV-I 0 W/m 4,3 C 5,8 C 3,2 km/h (1 Bft)
08.01.2013 17:55 5,7 C 90 % 1025,3 hPa 0,0 l/m 1,2 km/h (1 Bft) W-SW 247 0 min 0,000 mm 0,0 UV-I 0 W/m 4,2 C 5,7 C 4,8 km/h (1 Bft)
08.01.2013 18:00 5,8 C 90 % 1025,3 hPa 0,0 l/m 2,1 km/h (1 Bft) W-SW 255 0 min 0,000 mm 0,0 UV-I 0 W/m 4,3 C 5,8 C 6,4 km/h (2 Bft)
08.01.2013 18:05 5,8 C 90 % 1025,3 hPa 0,0 l/m 3,1 km/h (1 Bft) W 267 0 min 0,000 mm 0,0 UV-I 0 W/m 4,3 C 5,8 C 8,0 km/h (2 Bft)
08.01.2013 18:10 5,8 C 90 % 1025,4 hPa 0,0 l/m 3,1 km/h (1 Bft) W 269 0 min 0,000 mm 0,0 UV-I 0 W/m 4,3 C 5,8 C 11,3 km/h (2 Bft)
08.01.2013 18:15 5,8 C 90 % 1025,4 hPa 0,0 l/m 3,3 km/h (1 Bft) W-NW 300 0 min 0,000 mm 0,0 UV-I 0 W/m 4,3 C 5,8 C 8,0 km/h (2 Bft)
08.01.2013 18:20 5,8 C 89 % 1025,4 hPa 0,0 l/m 3,2 km/h (1 Bft) W-NW 296 0 min 0,000 mm 0,0 UV-I 0 W/m 4,1 C 5,8 C 6,4 km/h (2 Bft)
08.01.2013 18:25 5,8 C 89 % 1025,4 hPa 0,0 l/m 2,2 km/h (1 Bft) W-NW 292 0 min 0,000 mm 0,0 UV-I 0 W/m 4,1 C 5,8 C 6,4 km/h (2 Bft)
08.01.2013 18:30 5,8 C 90 % 1025,4 hPa 0,0 l/m 2,6 km/h (1 Bft) W 260 0 min 0,000 mm 0,0 UV-I 0 W/m 4,3 C 5,8 C 6,4 km/h (2 Bft)
08.01.2013 18:35 5,9 C 89 % 1025,4 hPa 0,0 l/m 1,4 km/h (1 Bft) W-NW 286 0 min 0,000 mm 0,0 UV-I 0 W/m 4,2 C 5,9 C 4,8 km/h (1 Bft)
08.01.2013 18:40 5,9 C 89 % 1025,4 hPa 0,0 l/m 0,7 km/h (0 Bft) W-NW 286 0 min 0,000 mm 0,0 UV-I 0 W/m 4,2 C 5,9 C 3,2 km/h (1 Bft)
08.01.2013 18:45 5,8 C 89 % 1025,4 hPa 0,0 l/m 1,5 km/h (1 Bft) SW 225 0 min 0,000 mm 0,0 UV-I 0 W/m 4,1 C 5,8 C 4,8 km/h (1 Bft)
08.01.2013 18:50 5,8 C 90 % 1025,4 hPa 0,0 l/m 1,1 km/h (1 Bft) W 267 0 min 0,000 mm 0,0 UV-I 0 W/m 4,3 C 5,8 C 4,8 km/h (1 Bft)
08.01.2013 18:55 5,8 C 90 % 1025,4 hPa 0,0 l/m 0,3 km/h (0 Bft) W 267 0 min 0,000 mm 0,0 UV-I 0 W/m 4,3 C 5,8 C 1,6 km/h (1 Bft)
08.01.2013 19:00 5,8 C 90 % 1025,4 hPa 0,0 l/m 0,7 km/h (0 Bft) W 267 0 min 0,000 mm 0,0 UV-I 0 W/m 4,3 C 5,8 C 3,2 km/h (1 Bft)
08.01.2013 19:05 5,8 C 90 % 1025,3 hPa 0,0 l/m 0,7 km/h (0 Bft) W 267 0 min 0,000 mm 0,0 UV-I 0 W/m 4,3 C 5,8 C 3,2 km/h (1 Bft)
08.01.2013 19:10 5,8 C 90 % 1025,3 hPa 0,0 l/m 0,2 km/h (0 Bft) W 267 0 min 0,000 mm 0,0 UV-I 0 W/m 4,3 C 5,8 C 1,6 km/h (1 Bft)
08.01.2013 19:15 5,8 C 90 % 1025,4 hPa 0,0 l/m 0,3 km/h (0 Bft) W 267 0 min 0,000 mm 0,0 UV-I 0 W/m 4,3 C 5,8 C 3,2 km/h (1 Bft)
08.01.2013 19:20 5,8 C 90 % 1025,4 hPa 0,0 l/m 0,0 km/h (0 Bft) W 267 0 min 0,000 mm 0,0 UV-I 0 W/m 4,3 C 5,8 C 1,6 km/h (1 Bft)
08.01.2013 19:25 5,8 C 90 % 1025,4 hPa 0,0 l/m 0,1 km/h (0 Bft) W 267 0 min 0,000 mm 0,0 UV-I 0 W/m 4,3 C 5,8 C 1,6 km/h (1 Bft)
08.01.2013 19:30 5,8 C 90 % 1025,4 hPa 0,0 l/m 0,0 km/h (0 Bft) W 267 0 min 0,000 mm 0,0 UV-I 0 W/m 4,3 C 5,8 C 0,0 km/h (0 Bft)
08.01.2013 19:35 5,8 C 90 % 1025,4 hPa 0,0 l/m 0,0 km/h (0 Bft) W 267 0 min 0,000 mm 0,0 UV-I 0 W/m 4,3 C 5,8 C 1,6 km/h (1 Bft)
08.01.2013 19:40 5,8 C 90 % 1025,4 hPa 0,0 l/m 0,1 km/h (0 Bft) W 267 0 min 0,000 mm 0,0 UV-I 0 W/m 4,3 C 5,8 C 1,6 km/h (1 Bft)
08.01.2013 19:45 5,8 C 90 % 1025,5 hPa 0,0 l/m 0,1 km/h (0 Bft) W 267 0 min 0,000 mm 0,0 UV-I 0 W/m 4,3 C 5,8 C 1,6 km/h (1 Bft)
08.01.2013 19:50 5,7 C 90 % 1025,5 hPa 0,0 l/m 0,0 km/h (0 Bft) W 267 0 min 0,000 mm 0,0 UV-I 0 W/m 4,2 C 5,7 C 0,0 km/h (0 Bft)
08.01.2013 19:55 5,7 C 90 % 1025,4 hPa 0,0 l/m 0,0 km/h (0 Bft) W 267 0 min 0,000 mm 0,0 UV-I 0 W/m 4,2 C 5,7 C 0,0 km/h (0 Bft)
08.01.2013 20:00 5,7 C 90 % 1025,5 hPa 0,0 l/m 0,0 km/h (0 Bft) W 267 0 min 0,000 mm 0,0 UV-I 0 W/m 4,2 C 5,7 C 0,0 km/h (0 Bft)
08.01.2013 20:05 5,7 C 90 % 1025,4 hPa 0,0 l/m 0,0 km/h (0 Bft) W 267 0 min 0,000 mm 0,0 UV-I 0 W/m 4,2 C 5,7 C 0,0 km/h (0 Bft)
08.01.2013 20:10 5,7 C 90 % 1025,4 hPa 0,0 l/m 0,0 km/h (0 Bft) W 267 0 min 0,000 mm 0,0 UV-I 0 W/m 4,2 C 5,7 C 0,0 km/h (0 Bft)
08.01.2013 20:15 5,6 C 90 % 1025,5 hPa 0,0 l/m 0,0 km/h (0 Bft) W 267 0 min 0,000 mm 0,0 UV-I 0 W/m 4,1 C 5,6 C 0,0 km/h (0 Bft)
08.01.2013 20:20 5,6 C 90 % 1025,5 hPa 0,0 l/m 0,0 km/h (0 Bft) W 267 0 min 0,000 mm 0,0 UV-I 0 W/m 4,1 C 5,6 C 0,0 km/h (0 Bft)
08.01.2013 20:25 5,6 C 90 % 1025,4 hPa 0,0 l/m 0,0 km/h (0 Bft) W 267 0 min 0,000 mm 0,0 UV-I 0 W/m 4,1 C 5,6 C 0,0 km/h (0 Bft)
08.01.2013 20:30 5,6 C 90 % 1025,4 hPa 0,0 l/m 0,0 km/h (0 Bft) W 267 0 min 0,000 mm 0,0 UV-I 0 W/m 4,1 C 5,6 C 0,0 km/h (0 Bft)
08.01.2013 20:35 5,6 C 90 % 1025,4 hPa 0,0 l/m 0,0 km/h (0 Bft) W 267 0 min 0,000 mm 0,0 UV-I 0 W/m 4,1 C 5,6 C 0,0 km/h (0 Bft)
08.01.2013 20:40 5,6 C 91 % 1025,4 hPa 0,0 l/m 0,0 km/h (0 Bft) W 267 0 min 0,000 mm 0,0 UV-I 0 W/m 4,2 C 5,6 C 0,0 km/h (0 Bft)
08.01.2013 20:45 5,6 C 91 % 1025,4 hPa 0,0 l/m 0,0 km/h (0 Bft) W 267 0 min 0,000 mm 0,0 UV-I 0 W/m 4,2 C 5,6 C 0,0 km/h (0 Bft)
08.01.2013 20:50 5,5 C 91 % 1025,4 hPa 0,0 l/m 0,0 km/h (0 Bft) W 267 0 min 0,000 mm 0,0 UV-I 0 W/m 4,2 C 5,5 C 0,0 km/h (0 Bft)
08.01.2013 20:55 5,5 C 91 % 1025,4 hPa 0,0 l/m 0,0 km/h (0 Bft) W 267 0 min 0,000 mm 0,0 UV-I 0 W/m 4,2 C 5,5 C 0,0 km/h (0 Bft)
08.01.2013 21:00 5,4 C 91 % 1025,4 hPa 0,0 l/m 0,1 km/h (0 Bft) W 267 0 min 0,000 mm 0,0 UV-I 0 W/m 4,1 C 5,4 C 1,6 km/h (1 Bft)
08.01.2013 21:05 5,4 C 91 % 1025,5 hPa 0,0 l/m 0,2 km/h (0 Bft) W 267 0 min 0,000 mm 0,0 UV-I 0 W/m 4,1 C 5,4 C 1,6 km/h (1 Bft)
08.01.2013 21:10 5,3 C 91 % 1025,4 hPa 0,0 l/m 0,2 km/h (0 Bft) W 267 0 min 0,000 mm 0,0 UV-I 0 W/m 4,0 C 5,3 C 1,6 km/h (1 Bft)
08.01.2013 21:15 5,3 C 91 % 1025,4 hPa 0,0 l/m 0,0 km/h (0 Bft) W 267 0 min 0,000 mm 0,0 UV-I 0 W/m 4,0 C 5,3 C 0,0 km/h (0 Bft)
08.01.2013 21:20 5,3 C 91 % 1025,4 hPa 0,0 l/m 0,2 km/h (0 Bft) W 267 0 min 0,000 mm 0,0 UV-I 0 W/m 4,0 C 5,3 C 1,6 km/h (1 Bft)
08.01.2013 21:25 5,3 C 91 % 1025,4 hPa 0,0 l/m 0,0 km/h (0 Bft) W 267 0 min 0,000 mm 0,0 UV-I 0 W/m 4,0 C 5,3 C 0,0 km/h (0 Bft)
08.01.2013 21:30 5,3 C 91 % 1025,3 hPa 0,0 l/m 0,0 km/h (0 Bft) W 267 0 min 0,000 mm 0,0 UV-I 0 W/m 4,0 C 5,3 C 0,0 km/h (0 Bft)
08.01.2013 21:35 5,3 C 91 % 1025,3 hPa 0,0 l/m 0,0 km/h (0 Bft) W 267 0 min 0,000 mm 0,0 UV-I 0 W/m 4,0 C 5,3 C 1,6 km/h (1 Bft)
08.01.2013 21:40 5,3 C 91 % 1025,3 hPa 0,0 l/m 0,2 km/h (0 Bft) W 267 0 min 0,000 mm 0,0 UV-I 0 W/m 4,0 C 5,3 C 1,6 km/h (1 Bft)
08.01.2013 21:45 5,3 C 91 % 1025,3 hPa 0,0 l/m 0,5 km/h (0 Bft) W 267 0 min 0,000 mm 0,0 UV-I 0 W/m 4,0 C 5,3 C 1,6 km/h (1 Bft)
08.01.2013 21:50 5,3 C 91 % 1025,3 hPa 0,0 l/m 0,8 km/h (0 Bft) W 267 0 min 0,000 mm 0,0 UV-I 0 W/m 4,0 C 5,3 C 3,2 km/h (1 Bft)
08.01.2013 21:55 5,3 C 91 % 1025,3 hPa 0,0 l/m 0,7 km/h (0 Bft) W 267 0 min 0,000 mm 0,0 UV-I 0 W/m 4,0 C 5,3 C 3,2 km/h (1 Bft)
08.01.2013 22:00 5,3 C 91 % 1025,4 hPa 0,0 l/m 0,5 km/h (0 Bft) W 267 0 min 0,000 mm 0,0 UV-I 0 W/m 4,0 C 5,3 C 1,6 km/h (1 Bft)
08.01.2013 22:05 5,2 C 91 % 1025,4 hPa 0,0 l/m 1,6 km/h (1 Bft) N 11 0 min 0,000 mm 0,0 UV-I 0 W/m 3,9 C 5,2 C 3,2 km/h (1 Bft)
08.01.2013 22:10 5,2 C 91 % 1025,4 hPa 0,0 l/m 0,4 km/h (0 Bft) N 11 0 min 0,000 mm 0,0 UV-I 0 W/m 3,9 C 5,2 C 1,6 km/h (1 Bft)
08.01.2013 22:15 5,2 C 91 % 1025,4 hPa 0,0 l/m 0,5 km/h (0 Bft) N 11 0 min 0,000 mm 0,0 UV-I 0 W/m 3,9 C 5,2 C 1,6 km/h (1 Bft)
08.01.2013 22:20 5,2 C 91 % 1025,3 hPa 0,0 l/m 0,1 km/h (0 Bft) N 11 0 min 0,000 mm 0,0 UV-I 0 W/m 3,9 C 5,2 C 1,6 km/h (1 Bft)
08.01.2013 22:25 5,2 C 91 % 1025,3 hPa 0,0 l/m 0,6 km/h (0 Bft) N 11 0 min 0,000 mm 0,0 UV-I 0 W/m 3,9 C 5,2 C 3,2 km/h (1 Bft)
08.01.2013 22:30 5,2 C 91 % 1025,4 hPa 0,0 l/m 0,3 km/h (0 Bft) N 11 0 min 0,000 mm 0,0 UV-I 0 W/m 3,9 C 5,2 C 1,6 km/h (1 Bft)
08.01.2013 22:35 5,2 C 91 % 1025,3 hPa 0,0 l/m 0,0 km/h (0 Bft) N 11 0 min 0,000 mm 0,0 UV-I 0 W/m 3,9 C 5,2 C 0,0 km/h (0 Bft)
08.01.2013 22:40 5,2 C 91 % 1025,2 hPa 0,0 l/m 0,0 km/h (0 Bft) N 11 0 min 0,000 mm 0,0 UV-I 0 W/m 3,9 C 5,2 C 1,6 km/h (1 Bft)
08.01.2013 22:45 5,2 C 91 % 1025,2 hPa 0,0 l/m 0,0 km/h (0 Bft) N 11 0 min 0,000 mm 0,0 UV-I 0 W/m 3,9 C 5,2 C 0,0 km/h (0 Bft)
08.01.2013 22:50 5,2 C 91 % 1025,2 hPa 0,0 l/m 0,0 km/h (0 Bft) N 11 0 min 0,000 mm 0,0 UV-I 0 W/m 3,9 C 5,2 C 0,0 km/h (0 Bft)
08.01.2013 22:55 5,2 C 91 % 1025,2 hPa 0,0 l/m 0,0 km/h (0 Bft) N 11 0 min 0,000 mm 0,0 UV-I 0 W/m 3,9 C 5,2 C 0,0 km/h (0 Bft)
08.01.2013 23:00 5,3 C 91 % 1025,2 hPa 0,0 l/m 0,0 km/h (0 Bft) N 11 0 min 0,000 mm 0,0 UV-I 0 W/m 4,0 C 5,3 C 0,0 km/h (0 Bft)
08.01.2013 23:05 5,2 C 91 % 1025,3 hPa 0,0 l/m 0,0 km/h (0 Bft) N 11 0 min 0,000 mm 0,0 UV-I 0 W/m 3,9 C 5,2 C 1,6 km/h (1 Bft)
08.01.2013 23:10 5,3 C 91 % 1025,2 hPa 0,0 l/m 0,0 km/h (0 Bft) N 11 0 min 0,000 mm 0,0 UV-I 0 W/m 4,0 C 5,3 C 0,0 km/h (0 Bft)
08.01.2013 23:15 5,2 C 91 % 1025,2 hPa 0,0 l/m 0,0 km/h (0 Bft) N 11 0 min 0,000 mm 0,0 UV-I 0 W/m 3,9 C 5,2 C 0,0 km/h (0 Bft)
08.01.2013 23:20 5,2 C 91 % 1025,1 hPa 0,0 l/m 0,0 km/h (0 Bft) N 11 0 min 0,000 mm 0,0 UV-I 0 W/m 3,9 C 5,2 C 0,0 km/h (0 Bft)
08.01.2013 23:25 5,2 C 91 % 1025,1 hPa 0,0 l/m 0,0 km/h (0 Bft) N 11 0 min 0,000 mm 0,0 UV-I 0 W/m 3,9 C 5,2 C 0,0 km/h (0 Bft)
08.01.2013 23:30 5,2 C 91 % 1025,1 hPa 0,0 l/m 0,0 km/h (0 Bft) N 11 0 min 0,000 mm 0,0 UV-I 0 W/m 3,9 C 5,2 C 0,0 km/h (0 Bft)
08.01.2013 23:35 5,2 C 91 % 1025,1 hPa 0,0 l/m 0,0 km/h (0 Bft) N 11 0 min 0,000 mm 0,0 UV-I 0 W/m 3,9 C 5,2 C 0,0 km/h (0 Bft)
08.01.2013 23:40 5,2 C 92 % 1025,1 hPa 0,0 l/m 0,0 km/h (0 Bft) N 11 0 min 0,000 mm 0,0 UV-I 0 W/m 4,0 C 5,2 C 0,0 km/h (0 Bft)
08.01.2013 23:45 5,3 C 92 % 1025,0 hPa 0,0 l/m 0,0 km/h (0 Bft) N 11 0 min 0,000 mm 0,0 UV-I 0 W/m 4,1 C 5,3 C 0,0 km/h (0 Bft)
08.01.2013 23:50 5,2 C 92 % 1025,0 hPa 0,0 l/m 0,0 km/h (0 Bft) N 11 0 min 0,000 mm 0,0 UV-I 0 W/m 4,0 C 5,2 C 0,0 km/h (0 Bft)
08.01.2013 23:55 5,2 C 92 % 1025,0 hPa 0,0 l/m 0,0 km/h (0 Bft) N 11 0 min 0,000 mm 0,0 UV-I 0 W/m 4,0 C 5,2 C 0,0 km/h (0 Bft)
_ Min-Zeit 03:05 11:30 05:35 - 00:00 - - - - - - 03:05 10:45 00:00
Minimum _ 3,3 C 88 % 1024,2 hPa - 0,0 km/h (0 Bft) - - - - - - 2,4 C 3,0 C 0,0 km/h (0 Bft)
_ Max-Zeit 18:35 03:45 00:00 00:00 06:45 - - 00:00 12:05 00:00 12:50 17:15 18:35 06:45
Maximum _ 5,9 C 95 % 1026,5 hPa 0,0 l/m 8,5 km/h
W-NW (2 Bft)
- - 0 min 0,026 mm 0,0 UV-I 81 W/m 4,3 C 5,9 C 19,3 km/h
W-SW (3 Bft)
Durchschnitt _ 5,0 C 91 % 1025,3 hPa #0,0 l/m 2,6 km/h (1 Bft) W - #0 min. #0,127 mm 0,0 UV-I 34 W/m 3,6 C 4,9 C 6,0 km/h (2 Bft)